Weather History for Estherville, IA

Change the Weather History Date:

Friday, December 7, 2012

  Actual Average Record
Temperature  
Mean Temperature 29 °F 22 °F  
Max Temperature 32 °F 30 °F 46 °F (1999)
Min Temperature 26 °F 13 °F -18 °F (1972)
Degree Days  
Heating Degree Days 36 43  
Month to date heating degree days 196 295  
Since 1 July heating degree days 1802 2014  
Cooling Degree Days 0 0  
Month to date cooling degree days 0 0  
Year to date cooling degree days 886 593  
Moisture  
Dew Point 23 °F    
Average Humidity 79    
Maximum Humidity 92    
Minimum Humidity 66    
Precipitation  
Precipitation T in 0.05 in 0.33 in (1969)
Month to date precipitation 0.14 0.34  
Sea Level Pressure  
Sea Level Pressure 30.01 in    
Wind  
Wind Speed 9 mph (NNE)    
Max Wind Speed 20 mph    
Max Gust Speed 22 mph    
Visibility 8 miles    
Events Snow    
T = Trace of Precipitation, MM = Missing Value Source: NWS Daily Summary

Daily Weather History Graph

Daily Weather History Graph

Search for Another Location

Airport:

Trip Planner

Search our weather history database for the weather conditions in past years. The results will help you decide how hot, cold, wet, or windy it might be!

Date:

Astronomy

Dec. 07, 2012 Rise Set
Actual Time 7:38 AM CST 4:42 PM CST
Civil Twilight 7:06 AM CST 5:15 PM CST
Nautical Twilight 6:30 AM CST 5:51 PM CST
Astronomical Twilight 5:55 AM CST 6:25 PM CST
Moon 12:48 AM CST (12/7) 12:49 PM CST (12/7)
Length of Visible Light 10h 09m
Length of Day
9h 04m
Last Quarter, 38% of the Moon is Illuminated
Dec 7
Last Quarter
Dec 13
New
Dec 19
First Quarter
Dec 28
Full
Jan 4
Last Quarter

Hourly Weather History & Observations

Time (CST) Temp. Windchill Dew Point Humidity Pressure Visibility Wind Dir Wind Speed Gust Speed Precip Events Conditions
12:52 AM 30.9 °F 22.8 °F 23.0 °F 72% 30.03 in 10.0 mi North 9.2 mph - N/A   Mostly Cloudy
1:52 AM 30.9 °F 22.8 °F 21.9 °F 69% 30.04 in 10.0 mi North 9.2 mph - N/A   Mostly Cloudy
2:52 AM 30.0 °F 24.1 °F 23.0 °F 75% 30.04 in 10.0 mi North 5.8 mph - N/A   Mostly Cloudy
3:52 AM 28.9 °F 22.8 °F 23.0 °F 78% 30.03 in 10.0 mi NNE 5.8 mph - N/A   Mostly Cloudy
4:52 AM 28.9 °F 21.9 °F 21.9 °F 75% 30.03 in 10.0 mi North 6.9 mph - N/A   Mostly Cloudy
5:52 AM 27.0 °F 20.5 °F 21.9 °F 81% 30.03 in 10.0 mi North 5.8 mph - N/A   Overcast
6:52 AM 26.1 °F 20.5 °F 23.0 °F 88% 30.02 in 9.0 mi NNE 4.6 mph - N/A   Overcast
7:52 AM 27.0 °F 21.6 °F 23.0 °F 85% 30.01 in 8.0 mi NE 4.6 mph - N/A   Overcast
8:52 AM 28.9 °F 21.9 °F 21.9 °F 75% 30.02 in 10.0 mi NNE 6.9 mph - N/A   Overcast
9:52 AM 28.9 °F 21.1 °F 21.9 °F 75% 30.04 in 10.0 mi NNE 8.1 mph - N/A   Mostly Cloudy
10:52 AM 30.0 °F 20.0 °F 21.9 °F 72% 30.03 in 10.0 mi NNE 12.7 mph - N/A   Overcast
11:52 AM 30.9 °F 21.7 °F 21.9 °F 69% 30.02 in 10.0 mi NNE 11.5 mph - N/A   Overcast
12:52 PM 30.9 °F 19.8 °F 21.9 °F 69% 30.01 in 10.0 mi NNE 16.1 mph - N/A   Mostly Cloudy
1:52 PM 30.9 °F 23.5 °F 21.9 °F 69% 30.01 in 10.0 mi NNE 8.1 mph - N/A   Overcast
2:52 PM 30.9 °F 22.2 °F 21.9 °F 69% 30.00 in 10.0 mi NE 10.4 mph - N/A   Overcast
3:52 PM 30.9 °F 23.5 °F 23.0 °F 72% 30.02 in 10.0 mi East 8.1 mph - N/A   Overcast
4:52 PM 30.0 °F 20.5 °F 23.0 °F 75% 29.99 in 10.0 mi NE 11.5 mph - N/A   Overcast
5:52 PM 30.0 °F 21.1 °F 23.0 °F 75% 29.99 in 10.0 mi ENE 10.4 mph - N/A   Overcast
6:52 PM 28.9 °F 18.2 °F 23.0 °F 78% 30.00 in 8.0 mi NNE 13.8 mph - N/A   Overcast
7:52 PM 28.9 °F 18.6 °F 25.0 °F 85% 30.02 in 6.0 mi NE 12.7 mph - 0.00 in Snow Light Snow
8:03 PM 28.4 °F 18.5 °F 24.8 °F 86% 29.97 in 6.0 mi ENE 11.5 mph - 0.00 in Snow Light Snow
9:11 PM 28.4 °F 18.5 °F 26.6 °F 93% 29.98 in 2.5 mi NE 11.5 mph - 0.00 in Snow Light Snow
9:52 PM 28.9 °F 19.2 °F 26.1 °F 89% 30.03 in 2.5 mi NE 11.5 mph - 0.00 in Snow Light Snow
10:11 PM 28.4 °F 19.1 °F 26.6 °F 93% 29.98 in 2.5 mi NE 10.4 mph - 0.00 in Snow Light Snow
10:30 PM 28.4 °F 19.1 °F 26.6 °F 93% 29.98 in 3.0 mi NE 10.4 mph - 0.00 in Snow Light Snow
10:52 PM 28.0 °F 20.8 °F 26.1 °F 92% 30.03 in 4.0 mi NE 6.9 mph - 0.00 in   Overcast
11:52 PM 28.0 °F 20.8 °F 26.1 °F 92% 30.04 in 4.0 mi NE 6.9 mph - N/A   Overcast